STARLINK-4155, 53036

Orbit data source: Space-Track

STARLINK-4155, 53036 is a payload satellite owned by SpaceX/Seattle (US) in LEO that was launched on Thu, 07 Jul 2022 UTC via an FALCON 9 launch vehicle from the Air Force Eastern Test Range (AFETR). Payload-class satellites include a variety of spacecraft equipped with specific instruments for various scientific and technological missions. These include communications satellites like Starlink; space stations such as the ISS; scientific satellites like the Hubble; Earth observation satellites from companies like Planet Labs, Umbra, and HawkEye 360; GPS; miniature CubeSats for education and research; and military/defense satellites.

Loading next visibility...
Identifier
53036, 2022-076BC
Orbit
LEO
Country
Flag of USUS
Related business
Manufacturer
SpaceX/Seattle
Mission
Operational Commercial Communications
Bus & Motor
STARLINK, Unknown motor
Mass
297 kg wet, ~275 kg dry
Launch date (UTC)
2022-07-07 (3 years ago)
Launch vehicle
FALCON 9
Launch site
Air Force Eastern Test Range (AFETR)
Object type
Payload
Rocket body
Debris
Shape & HBR
Box + 1 Pan, 10.1 m
Radar Cross Section
13.562 m², Large (>1 m²)

Expand to show TLE details & history
Last TLE update: 16 hours ago

TLE from 16 hours ago
0 STARLINK-4155
1 53036U 22076BC  25351.54250303 -.00000631  00000-0 -21565-4 0  9997
2 53036  53.2176  82.8940 0001163  90.7742 269.3383 15.08833353190726
Epoch: 2025-12-17T13:01Z
TLE epoch observation values (Epoch: 2025-12-17T13:01:12.261Z)
Latitude
-0.00007°
Longitude
161.18199°
Altitude
540.671 km
Speed
7.593 km/s
True Right ascension
05h 31m 34s
True Declination
0° 00' 00"
Sunlit
Object was in full shadow at epoch
Visualization orbit readout
Latitude
Unknown
Longitude
Unknown
Altitude
Unknown
Speed
Unknown
Apparent Right ascension
Unknown
Apparent Declination
Unknown
Sunlit
N/A
Visualization observer readout
Local Sidereal Time
03:23:14
Azimuth
Unknown
Elevation
Unknown
Doppler factor
Unknown
Orbital elements
Apogee altitude
540.813 km
Perigee altitude
539.204 km
Semi-major axis
6,918.146 km
Eccentricity
0.00012
Inclination
53.2176°
RAAN
82.894°
Arg. of periapsis
90.7742°
True anomaly
269.32497°
Mean anomaly
269.3383°
Eccentric anomaly
269.33164°
Mean motion
3.77189 °/min
Orbital period
95.44 mins
BSTAR
-0.000021565
Loading maneuver chart data...
Computing Atmospheric mass density...
Loading historical data...
Loading historical data...
Loading historical data...
Loading historical data...
Loading historical data...
Loading historical data...
Loading historical data...

Documentation

Showing up to 5 results
|